FW1042 Weather Reports


Display with metric or nautical units.
time (UTC)temp
F
wind
direction
speed
MPH
gust
MPH
rain 1hr
in
rain 24hr
in
rain mn
in
humidity
%
barometer
mb
20240530042112 77 192 2.0 6.0 0.00 0.00 0.00 83 1014.2
20240530041611 77 154 2.0 7.0 0.00 0.00 0.00 83 1014.1
20240530041106 77 57 2.0 7.0 0.00 0.00 0.00 83 1014.2
20240530040602 77 200 2.0 6.0 0.00 0.00 0.00 83 1014.2
20240530040322 77 75 3.0 9.0 0.00 0.00 0.00 82 1014.3
20240530035559 77 50 3.0 9.0 0.00 0.00 0.00 82 1014.2
20240530035059 77 136 2.0 6.0 0.00 0.00 0.00 82 1014.2
20240530034557 77 97 3.0 7.0 0.00 0.00 0.00 82 1014.2
20240530034103 78 94 2.0 8.0 0.00 0.00 0.00 81 1014.1
20240530033820 78 92 2.0 8.0 0.00 0.00 0.00 80 1014.0
20240530033055 78 88 2.0 7.0 0.00 0.00 0.00 80 1014.0
20240530032554 78 236 2.0 9.0 0.00 0.00 0.00 79 1013.9
20240530032317 78 332 2.0 9.0 0.00 0.00 0.00 78 1013.8
20240530031555 79 63 3.0 7.0 0.00 0.00 0.00 77 1013.9
20240530031054 79 203 2.0 9.0 0.00 0.00 0.00 75 1013.7
20240530030555 79 297 1.0 9.0 0.00 0.00 0.00 73 1013.8
20240530030055 80 44 1.0 4.0 0.00 0.00 0.00 70 1013.8
20240530025552 80 275 2.0 5.0 0.00 0.00 0.00 70 1013.7
20240530025053 80 311 2.0 5.0 0.00 0.00 0.00 69 1013.8
20240530024809 80 201 2.0 5.0 0.00 0.00 0.00 69 1013.8
20240530024048 80 126 1.0 5.0 0.00 0.00 0.00 69 1013.7
20240530023549 80 132 2.0 4.0 0.00 0.00 0.00 69 1013.7
20240530023042 80 242 2.0 6.0 0.00 0.00 0.00 68 1013.6
20240530022540 80 45 2.0 6.0 0.00 0.00 0.00 68 1013.5
20240530022037 80 67 2.0 6.0 0.00 0.00 0.00 68 1013.5
20240530021537 80 50 1.0 5.0 0.00 0.00 0.00 67 1013.5
20240530021035 81 0 2.0 5.0 0.00 0.00 0.00 67 1013.5
20240530021020 82 176 1.0 5.0 0.00 0.00 0.00 65 1013.4
20240530021015 81 115 1.0 5.0 0.00 0.00 0.00 66 1013.4
20240530021009 81 112 1.0 5.0 0.00 0.00 0.00 66 1013.5
20240530020921 81 170 1.0 5.0 0.00 0.00 0.00 67 1013.4
20240530020453 81 105 2.0 5.0 0.00 0.00 0.00 65 1013.5
20240530014024 82 85 1.0 5.0 0.00 0.00 0.00 65 1013.4
20240530013523 82 184 2.0 8.0 0.00 0.00 0.00 64 1013.4
20240530013024 82 43 2.0 8.0 0.00 0.00 0.00 64 1013.4
20240530012521 82 158 1.0 6.0 0.00 0.00 0.00 64 1013.4
20240530012020 82 275 1.0 6.0 0.00 0.00 0.00 64 1013.6
20240530011519 83 159 1.0 6.0 0.00 0.00 0.00 64 1013.6
20240530011015 83 348 2.0 6.0 0.00 0.00 0.00 63 1013.6
20240530010516 83 9 2.0 8.0 0.00 0.00 0.00 63 1013.6
20240530010244 83 282 2.0 8.0 0.00 0.00 0.00 62 1013.6
20240530005738 83 192 2.0 4.0 0.00 0.00 0.00 63 1013.6
20240530005006 83 105 2.0 3.0 0.00 0.00 0.00 63 1013.7
20240530004505 84 217 2.0 3.0 0.00 0.00 0.00 62 1013.7
20240530004004 84 119 2.0 7.0 0.00 0.00 0.00 61 1013.7
20240530003723 85 144 2.0 7.0 0.00 0.00 0.00 61 1013.8
20240530003004 85 238 2.0 7.0 0.00 0.00 0.00 60 1013.9
20240530002458 85 101 2.0 7.0 0.00 0.00 0.00 59 1013.8
20240530001956 86 59 2.0 7.0 0.00 0.00 0.00 59 1013.7
20240530001716 86 84 2.0 6.0 0.00 0.00 0.00 59 1013.8
20240530000955 86 94 2.0 6.0 0.00 0.00 0.00 58 1013.8
20240530000454 87 122 2.0 6.0 0.00 0.00 0.00 57 1013.8
20240529235954 87 34 2.0 6.0 0.00 0.00 0.00 57 1013.9
20240529235452 87 5 2.0 7.0 0.00 0.00 0.00 56 1014.0
20240529235433 87 180 2.0 7.0 0.00 0.00 0.00 57 1013.9
20240529234455 87 153 2.0 7.0 0.00 0.00 0.00 58 1014.0
20240529233946 86 126 2.0 5.0 0.00 0.00 0.00 58 1014.1
20240529233447 86 22 2.0 6.0 0.00 0.00 0.00 58 1014.1
20240529232943 86 355 2.0 6.0 0.00 0.00 0.00 58 1014.1
20240529232437 87 123 2.0 6.0 0.00 0.00 0.00 58 1014.2
20240529231937 87 24 2.0 6.0 0.00 0.00 0.00 57 1014.1
20240529231708 87 47 2.0 7.0 0.00 0.00 0.00 58 1014.1
20240529230935 88 298 3.0 7.0 0.00 0.00 0.00 57 1014.2
20240529230434 88 286 2.0 6.0 0.00 0.00 0.00 58 1014.3
20240529225933 88 30 3.0 8.0 0.00 0.00 0.00 57 1014.2
20240529225433 88 119 3.0 8.0 0.00 0.00 0.00 56 1014.4
20240529224930 88 262 3.0 7.0 0.00 0.00 0.00 56 1014.4
20240529224430 89 112 3.0 7.0 0.00 0.00 0.00 56 1014.4
20240529223933 89 219 3.0 7.0 0.00 0.00 0.00 56 1014.4
20240529223430 89 160 2.0 8.0 0.00 0.00 0.00 55 1014.4
20240529222929 89 130 3.0 8.0 0.00 0.00 0.00 54 1014.5
20240529222429 89 304 3.0 8.0 0.00 0.00 0.00 55 1014.4
20240529221934 89 71 2.0 8.0 0.00 0.00 0.00 55 1014.5
20240529221428 89 42 3.0 7.0 0.00 0.00 0.00 56 1014.4
20240529220928 89 112 3.0 7.0 0.00 0.00 0.00 55 1014.4
20240529220425 89 38 2.0 7.0 0.00 0.00 0.00 56 1014.4
20240529215926 89 336 3.0 8.0 0.00 0.00 0.00 55 1014.5
20240529215905 89 67 3.0 8.0 0.00 0.00 0.00 55 1014.6
20240529214925 89 342 3.0 7.0 0.00 0.00 0.00 54 1014.6
20240529214422 89 172 2.0 6.0 0.00 0.00 0.00 55 1014.6
20240529213923 88 187 2.0 6.0 0.00 0.02 0.00 57 1014.5
20240529213856 88 148 2.0 7.0 0.00 0.03 0.00 56 1014.6
20240529212920 88 113 3.0 7.0 0.00 0.04 0.00 55 1014.6
20240529212421 88 24 2.0 5.0 0.00 0.05 0.00 55 1014.7
20240529211916 88 355 2.0 6.0 0.00 0.05 0.00 56 1014.7
20240529211416 88 236 3.0 7.0 0.00 0.05 0.00 56 1014.8
20240529210914 88 169 3.0 7.0 0.00 0.05 0.00 57 1014.8
20240529210418 88 112 3.0 8.0 0.00 0.05 0.00 56 1014.7
20240529210134 88 26 2.0 8.0 0.00 0.05 0.00 57 1014.7
20240529205411 87 265 2.0 8.0 0.00 0.05 0.00 58 1014.6
20240529204911 87 281 3.0 8.0 0.00 0.05 0.00 57 1014.7
20240529204409 88 246 3.0 7.0 0.00 0.05 0.00 55 1014.9
20240529203909 88 111 2.0 5.0 0.00 0.05 0.00 56 1014.9
20240529203405 87 332 2.0 5.0 0.00 0.05 0.00 54 1015.0
20240529202903 88 172 2.0 5.0 0.00 0.05 0.00 53 1015.1
20240529202401 87 170 2.0 5.0 0.00 0.05 0.00 59 1015.1
20240529201902 87 170 2.0 5.0 0.00 0.05 0.00 57 1015.2
20240529201403 87 48 2.0 6.0 0.00 0.05 0.00 55 1015.3
20240529200856 87 209 2.0 6.0 0.00 0.05 0.00 58 1015.4
20240529200356 86 194 2.0 5.0 0.00 0.05 0.00 62 1015.4
20240529195855 86 298 2.0 5.0 0.00 0.05 0.00 58 1015.4
20240529195355 86 57 3.0 5.0 0.00 0.05 0.00 58 1015.5
20240529194853 86 113 3.0 6.0 0.00 0.05 0.00 59 1015.6
20240529194354 86 32 2.0 6.0 0.00 0.05 0.00 59 1015.5
20240529193856 86 50 2.0 5.0 0.00 0.05 0.00 60 1015.5
20240529193354 86 275 3.0 5.0 0.00 0.05 0.00 59 1015.6
20240529192855 86 0 3.0 8.0 0.00 0.05 0.00 60 1015.6
20240529192349 86 119 3.0 8.0 0.00 0.05 0.00 59 1015.6
20240529192109 85 117 2.0 7.0 0.00 0.05 0.00 62 1015.6
20240529191342 85 5 3.0 7.0 0.00 0.05 0.00 61 1015.6
20240529190842 85 109 3.0 6.0 0.00 0.05 0.00 60 1015.7
20240529190341 85 343 3.0 7.0 0.00 0.05 0.00 61 1015.7
20240529185840 85 170 3.0 7.0 0.00 0.05 0.00 63 1015.7
20240529185345 85 28 3.0 6.0 0.00 0.05 0.00 61 1015.8
20240529184840 85 54 3.0 6.0 0.00 0.05 0.00 62 1015.8
20240529184337 85 309 3.0 8.0 0.00 0.05 0.00 61 1015.8
20240529183836 85 10 3.0 8.0 0.00 0.05 0.00 62 1015.8
20240529183337 85 39 3.0 8.0 0.00 0.05 0.00 61 1015.8
20240529182836 85 150 2.0 5.0 0.00 0.05 0.00 61 1015.8
20240529182335 85 298 2.0 7.0 0.00 0.05 0.00 62 1015.8
20240529182059 85 329 3.0 7.0 0.00 0.05 0.00 61 1015.9
20240529181335 85 186 2.0 6.0 0.00 0.05 0.00 62 1015.9
20240529180835 84 58 2.0 5.0 0.00 0.05 0.00 62 1016.0
20240529180333 84 129 2.0 6.0 0.00 0.05 0.00 63 1016.0
20240529175834 84 5 2.0 6.0 0.00 0.05 0.00 61 1016.3
20240529175333 84 17 2.0 6.0 0.00 0.05 0.00 61 1016.4
20240529174832 83 149 2.0 7.0 0.00 0.05 0.00 64 1016.3
20240529174330 83 5 2.0 7.0 0.00 0.05 0.00 62 1016.4
20240529173830 83 28 2.0 6.0 0.00 0.05 0.00 62 1016.6
20240529173328 83 350 3.0 6.0 0.00 0.05 0.00 60 1016.7
20240529172828 83 167 2.0 6.0 0.00 0.05 0.00 62 1016.8
20240529172328 83 86 2.0 6.0 0.00 0.05 0.00 61 1016.9
20240529171828 83 300 3.0 8.0 0.00 0.05 0.00 62 1017.0
20240529171328 83 24 2.0 8.0 0.00 0.05 0.00 63 1017.0
20240529170829 82 92 2.0 6.0 0.00 0.05 0.00 64 1017.1
20240529170328 82 0 2.0 7.0 0.00 0.05 0.00 65 1017.1
20240529165830 82 154 3.0 7.0 0.00 0.05 0.00 65 1017.3
20240529165324 82 159 3.0 7.0 0.00 0.05 0.00 66 1017.3
20240529164826 82 194 2.0 7.0 0.00 0.05 0.00 66 1017.3
20240529164324 82 351 2.0 8.0 0.00 0.05 0.00 66 1017.4
20240529163820 82 80 3.0 8.0 0.00 0.05 0.00 66 1017.4
20240529163316 82 194 3.0 8.0 0.00 0.05 0.00 67 1017.4
20240529162817 82 150 2.0 8.0 0.00 0.05 0.00 67 1017.6
20240529162317 82 280 2.0 7.0 0.00 0.05 0.00 68 1017.7
20240529161544 82 149 2.0 6.0 0.00 0.05 0.00 69 1017.6
20240529161042 81 168 2.0 6.0 0.00 0.05 0.00 68 1017.8
20240529160314 81 55 2.0 7.0 0.00 0.05 0.00 70 1017.8
20240529155812 80 157 2.0 7.0 0.00 0.05 0.00 70 1017.8
20240529155311 80 142 2.0 5.0 0.00 0.05 0.00 69 1017.9
20240529154810 80 309 2.0 7.0 0.00 0.05 0.00 70 1017.8
20240529154531 80 188 2.0 7.0 0.00 0.05 0.00 68 1017.9
20240529153810 80 337 3.0 6.0 0.00 0.05 0.00 70 1017.8
20240529153530 80 140 2.0 6.0 0.00 0.05 0.00 70 1017.8
20240529152809 80 57 2.0 6.0 0.00 0.05 0.00 70 1017.8
20240529152308 80 72 2.0 3.0 0.00 0.06 0.00 70 1017.8
20240529151801 80 90 2.0 5.0 0.00 0.07 0.00 70 1017.8
20240529151300 80 274 1.0 5.0 0.00 0.08 0.00 71 1017.9
20240529150759 79 86 1.0 3.0 0.00 0.09 0.00 71 1017.8
20240529150259 79 170 1.0 5.0 0.00 0.11 0.00 71 1017.7
20240529145757 79 348 2.0 5.0 0.00 0.12 0.00 69 1017.6
20240529145256 79 73 2.0 5.0 0.00 0.13 0.00 71 1017.6
20240529145025 79 355 1.0 5.0 0.00 0.14 0.00 70 1017.5
20240529144254 79 104 1.0 3.0 0.00 0.16 0.00 72 1017.5
20240529143753 78 47 2.0 5.0 0.00 0.17 0.00 71 1017.5
20240529143249 78 13 1.0 5.0 0.00 0.19 0.00 72 1017.4
20240529143003 78 30 1.0 4.0 0.00 0.20 0.00 73 1017.5
20240529142242 77 43 1.0 4.0 0.00 0.22 0.00 74 1017.4
20240529141738 77 15 1.0 3.0 0.00 0.23 0.00 74 1017.4
20240529141239 76 182 1.0 3.0 0.00 0.24 0.00 74 1017.4
20240529140736 76 294 1.0 3.0 0.00 0.25 0.00 75 1017.5
20240529140219 76 198 1.0 3.0 0.00 0.26 0.00 76 1017.6
20240529135728 76 307 1.0 3.0 0.00 0.27 0.00 75 1017.5
20240529135218 76 309 1.0 3.0 0.00 0.28 0.00 76 1017.5
20240529134712 75 82 1.0 3.0 0.00 0.28 0.00 77 1017.6
20240529134209 75 5 2.0 3.0 0.00 0.28 0.00 76 1017.5
20240529133708 75 37 2.0 3.0 0.00 0.29 0.00 76 1017.5
20240529133202 74 50 1.0 3.0 0.00 0.29 0.00 78 1017.4
20240529132701 74 5 1.0 2.0 0.00 0.29 0.00 79 1017.3
20240529132158 74 34 1.0 2.0 0.00 0.30 0.00 80 1017.2
20240529131658 73 342 1.0 3.0 0.00 0.30 0.00 82 1017.2
20240529131140 72 69 1.0 4.0 0.00 0.32 0.00 83 1017.2
20240529130637 72 17 1.0 4.0 0.00 0.33 0.00 84 1017.4
20240529130135 71 30 1.0 4.0 0.00 0.34 0.00 85 1017.3
20240529125905 71 17 1.0 3.0 0.00 0.35 0.00 86 1017.4
20240529125133 70 27 1.0 3.0 0.00 0.38 0.00 87 1017.4
20240529124619 70 5 1.0 3.0 0.00 0.39 0.00 87 1017.4
20240529124559 69 303 1.0 3.0 0.00 0.42 0.00 88 1017.6
20240529123605 69 5 1.0 3.0 0.00 0.49 0.00 87 1017.5
20240529123101 69 5 2.0 3.0 0.00 0.51 0.00 87 1017.1
20240529122602 69 25 1.0 3.0 0.00 0.53 0.00 87 1017.0
20240529122102 69 49 1.0 3.0 0.00 0.54 0.00 87 1017.1
20240529121602 69 11 1.0 3.0 0.00 0.54 0.00 87 1017.2
20240529121056 69 5 1.0 3.0 0.00 0.54 0.00 87 1017.2
20240529120556 69 317 1.0 3.0 0.00 0.54 0.00 87 1017.3
20240529120321 69 350 2.0 5.0 0.00 0.54 0.00 87 1017.2
20240529115544 69 15 2.0 5.0 0.00 0.55 0.00 87 1017.0
20240529115043 69 350 1.0 3.0 0.00 0.55 0.00 87 1017.0
20240529114539 69 28 1.0 4.0 0.00 0.55 0.00 87 1017.1
20240529114259 69 162 2.0 4.0 0.00 0.55 0.00 87 1017.1
20240529113535 69 174 2.0 7.0 0.00 0.55 0.00 87 1017.1
20240529113031 69 138 3.0 7.0 0.00 0.56 0.00 87 1017.0
20240529112749 69 146 3.0 7.0 0.00 0.57 0.00 87 1017.1
20240529112030 69 126 3.0 6.0 0.00 0.59 0.00 87 1017.1
20240529111528 69 177 3.0 7.0 0.00 0.62 0.00 87 1017.1
20240529111029 69 152 3.0 8.0 0.00 0.67 0.00 87 1017.1
20240529110528 69 136 2.0 8.0 0.00 0.76 0.00 86 1017.1
20240529110032 69 191 2.0 5.0 0.00 0.90 0.00 86 1017.1
20240529105524 69 110 1.0 5.0 0.00 1.20 0.00 86 1017.1
20240529105021 69 287 1.0 5.0 0.00 1.74 0.00 86 1017.0
20240529104521 69 355 1.0 5.0 0.00 2.15 0.00 86 1016.4
20240529104018 69 58 1.0 5.0 0.00 2.36 0.00 86 1016.6
20240529103734 69 355 1.0 5.0 0.00 2.42 0.00 86 1016.2
20240529103013 69 5 2.0 7.0 0.00 2.47 0.00 87 1015.5
20240529102510 70 19 2.0 7.0 0.00 2.47 0.00 87 1015.4
20240529102013 70 248 2.0 8.0 0.00 2.47 0.00 86 1015.2
20240529101510 70 69 3.0 9.0 0.00 2.47 0.00 86 1015.2
20240529101010 70 187 3.0 9.0 0.00 2.47 0.00 86 1015.0
20240529100507 70 325 2.0 7.0 0.00 2.47 0.00 86 1015.0
20240529100228 70 136 3.0 7.0 0.00 2.47 0.00 86 1015.3
20240529095504 70 308 3.0 7.0 0.00 2.47 0.00 86 1015.3
20240529095003 71 0 3.0 6.0 0.00 2.47 0.00 86 1015.2
20240529094502 71 32 3.0 7.0 0.00 2.47 0.00 85 1015.3
20240529094002 71 355 3.0 7.0 0.00 2.47 0.00 85 1015.5
20240529093503 71 331 3.0 8.0 0.00 2.47 0.00 84 1015.4
20240529092959 71 296 2.0 8.0 0.00 2.47 0.00 84 1014.8
20240529092459 71 259 2.0 8.0 0.00 2.47 0.00 84 1014.1
20240529091959 71 355 3.0 9.0 0.00 2.47 0.00 84 1014.7
20240529091449 71 309 3.0 9.0 0.00 2.47 0.00 85 1014.5
20240529090950 71 109 3.0 8.0 0.00 2.47 0.00 85 1013.7
20240529090709 71 191 3.0 7.0 0.00 2.47 0.00 85 1013.1
20240529090437 71 160 2.0 6.0 0.00 2.47 0.00 85 1013.4
20240529085447 71 214 1.0 3.0 0.00 2.47 0.00 84 1014.3
20240529084951 71 47 2.0 8.0 0.00 2.47 0.00 84 1014.7
20240529084705 71 130 4.0 9.0 0.00 2.47 0.00 84 1014.4
20240529083946 71 168 3.0 9.0 0.00 2.47 0.00 85 1014.0
20240529083443 70 171 3.0 10.0 0.00 2.47 0.00 85 1013.8
20240529082942 70 157 3.0 10.0 0.00 2.47 0.00 86 1013.8
20240529082442 71 123 2.0 7.0 0.00 2.47 0.00 86 1013.9
20240529081941 71 165 1.0 7.0 0.00 2.47 0.00 86 1014.4
20240529081439 71 158 1.0 3.0 0.00 2.47 0.00 86 1014.6
20240529080945 71 123 1.0 7.0 0.00 2.47 0.00 85 1014.8
20240529080419 71 261 2.0 8.0 0.00 2.47 0.00 85 1014.9
20240529075922 71 146 3.0 8.0 0.00 2.47 0.00 85 1014.8
20240529075416 71 200 2.0 6.0 0.00 2.47 0.00 86 1015.2
20240529075137 71 193 1.0 5.0 0.00 2.47 0.00 86 1015.4
20240529074640 71 30 2.0 6.0 0.00 2.47 0.00 86 1015.5
20240529073905 71 257 2.0 7.0 0.00 2.47 0.00 86 1015.4
20240529073406 71 176 2.0 7.0 0.00 2.47 0.00 87 1015.4
20240529072906 71 218 3.0 7.0 0.00 2.47 0.00 87 1016.2
20240529072404 71 291 5.0 18.0 0.00 2.47 0.00 87 1016.0
20240529072131 71 207 6.0 18.0 0.00 2.47 0.00 87 1014.9
20240529071624 71 178 4.0 10.0 0.00 2.47 0.00 87 1015.1
20240529070902 71 92 3.0 8.0 0.00 2.47 0.00 87 1016.0
20240529070403 71 170 3.0 6.0 0.00 2.47 0.00 87 1016.7
20240529065903 71 179 2.0 6.0 0.00 2.47 0.00 87 1017.0
20240529065403 71 143 1.0 6.0 0.00 2.47 0.00 87 1017.3
20240529064902 70 285 3.0 6.0 0.00 2.47 0.00 87 1017.7
20240529064400 70 169 3.0 6.0 0.00 2.47 0.00 87 1016.8
20240529063859 70 127 3.0 6.0 0.00 2.47 0.00 87 1016.8
20240529063358 70 178 2.0 6.0 0.00 2.47 0.00 87 1016.7
20240529063123 70 194 1.0 4.0 0.00 2.47 0.00 87 1016.8
20240529062357 70 118 1.0 4.0 0.00 2.47 0.00 87 1016.9
20240529062337 70 76 1.0 2.0 0.00 2.47 0.00 87 1017.1
20240529061357 70 146 1.0 3.0 0.00 2.47 0.00 87 1017.3
20240529061343 71 92 1.0 3.0 0.00 2.47 0.00 87 1017.3
20240529060355 71 133 1.0 2.0 0.00 2.47 0.00 87 1017.2
20240529055857 71 123 1.0 2.0 0.00 2.47 0.00 86 1017.4
20240529055358 71 104 0.0 2.0 0.00 2.47 0.00 86 1017.5
20240529055115 71 123 0.0 2.0 0.00 2.47 0.00 86 1017.5
20240529054347 71 142 1.0 2.0 0.00 2.47 0.00 86 1017.5
20240529053846 71 9 1.0 3.0 0.00 2.47 0.00 86 1017.5
20240529053559 71 26 1.0 3.0 0.00 2.47 0.00 86 1017.6
20240529052841 71 22 1.0 3.0 0.00 2.47 0.00 86 1017.6
20240529052338 71 26 1.0 3.0 0.00 2.47 0.00 86 1017.7
20240529051838 71 30 1.0 3.0 0.00 2.47 0.00 85 1017.9
20240529051336 71 61 1.0 4.0 0.00 2.47 0.00 85 1018.1
20240529050827 71 51 1.0 4.0 0.00 2.47 0.00 85 1018.3
20240529050329 72 32 1.0 3.0 0.00 2.47 0.00 84 1018.3
20240529045820 72 55 1.0 3.0 0.00 2.47 2.47 84 1018.5
20240529045534 72 10 1.0 3.0 0.00 2.47 2.47 84 1018.6
20240529044812 72 19 2.0 4.0 0.00 2.47 2.47 83 1018.8
20240529044523 72 22 2.0 5.0 0.00 2.47 2.47 83 1019.0
20240529043805 72 16 2.0 5.0 0.00 2.47 2.47 83 1019.0
20240529043531 72 0 2.0 6.0 0.00 2.47 2.47 83 1019.2
20240529042806 72 5 3.0 8.0 0.00 2.47 2.47 83 1019.2